18:35
Airports
History
Links
Donate
Help keep this website running!
PayPal
Bitcoin
Information on this page is community maintained and may be outdated or inaccurate and is intended for reference only or PC simulator navigating.
Always use approved charts for navigating.
SNXS
Caxias
Caxias (SNXS)
Caxias, Maranhao, Brazil (65604)
(C)
Lat/Lng:4° 52' 0" S / 43° 21' 1" W
-4.866667 / -43.350277
Elevation:344'ft 105mMSL
ID / ICAO:SNXS
Runways:1
Longest:(12-30) 1,158.7m 3,802ft Concrete
Controlled:Yes
Distance To
Airport ID:
Nearby WeatherUpdated 07-20-17 17:00 GMT
Nearby weather at SBTE, Senador Petronio Portella located 38.6 nautical miles from SNXS
Altimeter: 29.91
Visibility: 6.2 statute miles
Wind: 6 knots (130°)
Temp: 34°c 93°f
Humidity: 36.4%

METAR: SBTE 201700Z 13006KT 9999 SCT040 34/17 Q1013

(Powered by phpweather)
Runway 12 / 30
Dimensions:1158.7 x 16.5m 3802' x 54'ft
Surface:Concrete
Edge Lights:Medium intensity
Runway 12 [A]Runway 30 [B]
Heading:099°TH 279°TH
Lat:
Lng:
4° 51' 56.74"S
43° 21' 19.57"W
4° 52' 3.26"S
43° 20' 42.42"W
ALS:MALSMALS
User Notes and Comments
Google Map
Nearby Airports
4 Fazenda Rio Largo 28.5 NM
SNIS SW 216°
(U) DOMINGOS REGO 36.0 NM
SNDR ESE 114°
(C) Senador Petronio Portella 38.6 NM
SBTE (WX) ESE 110°
4 Nossa Senhora de Fatima 45.9 NM
SNNF ESE 104°
(U) Dr. Almir Lopes de Oliveira Melo 47.8 NM
SIDB NNE 30°
(U) Tambori 47.9 NM
SNTC ESE 115°
4 Tambori 49.0 NM
SNWQ ESE 114°
VFR Chart
Flight Planning at SkyVector.com